| time (UTC) | temp F | wind direction | speed knots | gust knots | rain 1hr in | rain 24hr in | rain mn in | humidity % | barometer mb |
| 20260510223525 | 64 | 139 | 0.0 | 0.0 | 0.00 | 0.14 | 0.01 | 82 | 1011.4 |
| 20260510223019 | 64 | 156 | 0.0 | 0.0 | 0.00 | 0.14 | 0.01 | 82 | 1011.4 |
| 20260510222519 | 64 | 193 | 0.0 | 0.0 | 0.00 | 0.14 | 0.01 | 81 | 1011.4 |
| 20260510222018 | 64 | 127 | 0.0 | 0.0 | 0.00 | 0.14 | 0.01 | 81 | 1011.4 |
| 20260510221520 | 64 | 127 | 0.0 | 0.0 | 0.00 | 0.14 | 0.01 | 80 | 1011.3 |
| 20260510221019 | 64 | 113 | 0.0 | 0.0 | 0.00 | 0.14 | 0.01 | 82 | 1011.3 |
| 20260510220518 | 64 | 153 | 0.0 | 0.0 | 0.00 | 0.14 | 0.01 | 83 | 1011.4 |
| 20260510220020 | 64 | 151 | 0.0 | 0.0 | 0.00 | 0.14 | 0.01 | 83 | 1011.4 |
| 20260510215516 | 64 | 145 | 0.0 | 0.0 | 0.00 | 0.19 | 0.01 | 83 | 1011.2 |
| 20260510215016 | 64 | 145 | 0.0 | 0.0 | 0.00 | 0.19 | 0.01 | 83 | 1011.1 |
| 20260510214517 | 64 | 160 | 0.0 | 0.0 | 0.00 | 0.19 | 0.01 | 83 | 1011.2 |
| 20260510214016 | 63 | 209 | 0.0 | 0.0 | 0.01 | 0.19 | 0.01 | 82 | 1011.3 |
| 20260510213515 | 63 | 133 | 0.0 | 0.0 | 0.01 | 0.19 | 0.01 | 81 | 1011.4 |
| 20260510213016 | 63 | 138 | 0.0 | 0.0 | 0.01 | 0.19 | 0.01 | 80 | 1011.3 |
| 20260510212515 | 63 | 160 | 0.0 | 0.0 | 0.01 | 0.19 | 0.01 | 80 | 1011.1 |
| 20260510212015 | 64 | 158 | 0.0 | 0.0 | 0.01 | 0.19 | 0.01 | 80 | 1011.0 |
| 20260510211518 | 64 | 158 | 0.0 | 0.0 | 0.01 | 0.19 | 0.01 | 80 | 1011.0 |
| 20260510211014 | 64 | 217 | 0.0 | 0.0 | 0.01 | 0.19 | 0.01 | 81 | 1010.9 |
| 20260510210516 | 64 | 217 | 0.0 | 0.0 | 0.01 | 0.19 | 0.01 | 79 | 1011.0 |
| 20260510210016 | 64 | 257 | 0.0 | 0.0 | 0.01 | 0.19 | 0.01 | 81 | 1011.1 |
| 20260510205513 | 64 | 217 | 0.0 | 0.0 | 0.01 | 0.28 | 0.01 | 81 | 1011.2 |
| 20260510205014 | 65 | 146 | 0.0 | 0.0 | 0.01 | 0.28 | 0.01 | 80 | 1011.2 |
| 20260510204517 | 66 | 46 | 0.0 | 0.0 | 0.01 | 0.28 | 0.01 | 79 | 1011.1 |
| 20260510204012 | 67 | 35 | 0.0 | 0.0 | 0.00 | 0.27 | 0.00 | 80 | 1010.9 |
| 20260510203514 | 68 | 240 | 0.0 | 0.0 | 0.00 | 0.27 | 0.00 | 77 | 1010.7 |
| 20260510203013 | 68 | 161 | 0.0 | 0.0 | 0.00 | 0.27 | 0.00 | 76 | 1010.5 |
| 20260510202517 | 68 | 138 | 0.0 | 0.0 | 0.00 | 0.27 | 0.00 | 75 | 1010.4 |
| 20260510202011 | 68 | 179 | 0.0 | 0.0 | 0.00 | 0.27 | 0.00 | 75 | 1010.3 |
| 20260510201511 | 68 | 142 | 0.0 | 0.0 | 0.00 | 0.27 | 0.00 | 74 | 1010.3 |
| 20260510201013 | 68 | 148 | 0.0 | 0.0 | 0.00 | 0.27 | 0.00 | 73 | 1010.3 |
| 20260510200511 | 69 | 148 | 0.0 | 0.0 | 0.00 | 0.27 | 0.00 | 74 | 1010.3 |
| 20260510200035 | 69 | 131 | 0.0 | 0.0 | 0.00 | 0.27 | 0.00 | 74 | 1010.4 |
| 20260510195510 | 69 | 207 | 0.0 | 0.0 | 0.00 | 0.43 | 0.00 | 73 | 1010.4 |
| 20260510195010 | 70 | 207 | 0.0 | 0.0 | 0.00 | 0.43 | 0.00 | 73 | 1010.5 |
| 20260510194510 | 69 | 188 | 0.0 | 0.0 | 0.00 | 0.43 | 0.00 | 73 | 1010.4 |
| 20260510194010 | 69 | 155 | 0.0 | 0.0 | 0.00 | 0.43 | 0.00 | 72 | 1010.5 |
| 20260510193509 | 70 | 164 | 0.0 | 0.0 | 0.00 | 0.43 | 0.00 | 71 | 1010.5 |
| 20260510193020 | 70 | 201 | 0.0 | 0.0 | 0.00 | 0.43 | 0.00 | 71 | 1010.5 |
| 20260510192508 | 70 | 113 | 0.0 | 0.0 | 0.00 | 0.43 | 0.00 | 71 | 1010.4 |
| 20260510192008 | 70 | 186 | 0.0 | 0.0 | 0.00 | 0.43 | 0.00 | 71 | 1010.4 |
| 20260510191508 | 70 | 150 | 0.0 | 0.0 | 0.00 | 0.43 | 0.00 | 71 | 1010.4 |
| 20260510191007 | 70 | 156 | 0.0 | 0.0 | 0.00 | 0.43 | 0.00 | 71 | 1010.4 |
| 20260510190508 | 70 | 155 | 0.0 | 0.0 | 0.00 | 0.43 | 0.00 | 70 | 1010.4 |
| 20260510190020 | 70 | 205 | 0.0 | 0.0 | 0.00 | 0.43 | 0.00 | 70 | 1010.5 |
| 20260510185507 | 70 | 149 | 0.0 | 0.0 | 0.00 | 0.47 | 0.00 | 70 | 1010.6 |
| 20260510185006 | 70 | 196 | 0.0 | 0.0 | 0.00 | 0.47 | 0.00 | 71 | 1010.6 |
| 20260510184507 | 71 | 168 | 0.0 | 0.0 | 0.00 | 0.47 | 0.00 | 70 | 1010.7 |
| 20260510184006 | 70 | 232 | 0.0 | 0.0 | 0.00 | 0.47 | 0.00 | 72 | 1010.7 |
| 20260510183506 | 70 | 143 | 0.0 | 0.0 | 0.00 | 0.47 | 0.00 | 70 | 1010.7 |
| 20260510183013 | 70 | 172 | 0.0 | 0.0 | 0.00 | 0.47 | 0.00 | 70 | 1010.6 |
| 20260510182504 | 71 | 134 | 0.0 | 0.0 | 0.00 | 0.47 | 0.00 | 69 | 1010.7 |
| 20260510182006 | 71 | 208 | 0.0 | 0.0 | 0.00 | 0.47 | 0.00 | 69 | 1010.8 |
| 20260510181518 | 71 | 126 | 0.0 | 0.0 | 0.00 | 0.47 | 0.00 | 69 | 1010.8 |
| 20260510181004 | 71 | 158 | 0.0 | 0.0 | 0.00 | 0.47 | 0.00 | 69 | 1010.9 |
| 20260510180503 | 71 | 231 | 0.0 | 0.0 | 0.00 | 0.47 | 0.00 | 69 | 1011.0 |
| 20260510180004 | 71 | 164 | 0.0 | 0.0 | 0.00 | 0.47 | 0.00 | 68 | 1011.0 |
| 20260510175503 | 71 | 150 | 0.0 | 0.0 | 0.00 | 0.47 | 0.00 | 68 | 1011.0 |
| 20260510175003 | 71 | 139 | 0.0 | 0.0 | 0.00 | 0.47 | 0.00 | 69 | 1010.7 |
| 20260510174501 | 71 | 156 | 0.0 | 0.0 | 0.00 | 0.47 | 0.00 | 69 | 1010.8 |
| 20260510174101 | 71 | 212 | 0.0 | 0.0 | 0.00 | 0.47 | 0.00 | 69 | 1010.8 |
| 20260510173600 | 70 | 131 | 0.0 | 0.0 | 0.00 | 0.47 | 0.00 | 72 | 1010.7 |
| 20260510173106 | 70 | 194 | 0.0 | 0.0 | 0.00 | 0.47 | 0.00 | 73 | 1010.8 |
| 20260510172557 | 69 | 252 | 0.0 | 0.0 | 0.00 | 0.47 | 0.00 | 70 | 1010.8 |
| 20260510172057 | 69 | 159 | 0.0 | 0.0 | 0.00 | 0.47 | 0.00 | 73 | 1010.9 |
| 20260510171558 | 69 | 300 | 0.0 | 0.0 | 0.00 | 0.47 | 0.00 | 73 | 1011.0 |
| 20260510171056 | 69 | 160 | 0.0 | 0.0 | 0.00 | 0.47 | 0.00 | 73 | 1011.0 |
| 20260510170556 | 68 | 155 | 0.0 | 0.0 | 0.00 | 0.47 | 0.00 | 74 | 1011.0 |
| 20260510170101 | 69 | 150 | 0.0 | 0.0 | 0.00 | 0.47 | 0.00 | 72 | 1011.0 |
| 20260510165552 | 68 | 197 | 0.0 | 0.0 | 0.00 | 0.47 | 0.00 | 76 | 1011.1 |
| 20260510165052 | 68 | 211 | 0.0 | 0.0 | 0.00 | 0.47 | 0.00 | 74 | 1011.2 |
| 20260510164553 | 68 | 170 | 0.0 | 0.0 | 0.00 | 0.47 | 0.00 | 74 | 1011.3 |
| 20260510164050 | 68 | 152 | 0.0 | 0.0 | 0.00 | 0.47 | 0.00 | 75 | 1011.4 |
| 20260510163550 | 68 | 131 | 0.0 | 0.0 | 0.00 | 0.47 | 0.00 | 75 | 1011.3 |
| 20260510163050 | 68 | 162 | 0.0 | 0.0 | 0.00 | 0.47 | 0.00 | 76 | 1011.4 |
| 20260510162550 | 68 | 214 | 0.0 | 0.0 | 0.00 | 0.47 | 0.00 | 75 | 1011.5 |
| 20260510162049 | 68 | 138 | 0.0 | 0.0 | 0.00 | 0.47 | 0.00 | 75 | 1011.5 |
| 20260510161546 | 68 | 166 | 0.0 | 0.0 | 0.00 | 0.47 | 0.00 | 76 | 1011.4 |
| 20260510161047 | 67 | 208 | 0.0 | 0.0 | 0.00 | 0.47 | 0.00 | 76 | 1011.5 |
| 20260510160545 | 67 | 264 | 0.0 | 0.0 | 0.00 | 0.47 | 0.00 | 79 | 1011.4 |
| 20260510160047 | 66 | 203 | 0.0 | 0.0 | 0.00 | 0.47 | 0.00 | 79 | 1011.5 |
| 20260510155545 | 66 | 200 | 0.0 | 0.0 | 0.00 | 0.47 | 0.00 | 80 | 1011.5 |
| 20260510155041 | 65 | 291 | 0.0 | 0.0 | 0.00 | 0.47 | 0.00 | 79 | 1011.7 |
| 20260510154543 | 65 | 195 | 0.0 | 0.0 | 0.00 | 0.47 | 0.00 | 82 | 1011.6 |
| 20260510154040 | 64 | 163 | 0.0 | 0.0 | 0.00 | 0.47 | 0.00 | 82 | 1011.7 |
| 20260510153536 | 64 | 141 | 0.0 | 0.0 | 0.00 | 0.47 | 0.00 | 83 | 1011.9 |
| 20260510153041 | 63 | 174 | 0.0 | 0.0 | 0.00 | 0.47 | 0.00 | 84 | 1011.9 |
| 20260510152538 | 63 | 129 | 0.0 | 0.0 | 0.00 | 0.47 | 0.00 | 84 | 1011.9 |
| 20260510152034 | 63 | 269 | 0.0 | 0.0 | 0.00 | 0.47 | 0.00 | 87 | 1011.9 |
| 20260510151535 | 62 | 239 | 0.0 | 0.0 | 0.00 | 0.47 | 0.00 | 85 | 1011.9 |
| 20260510151032 | 62 | 151 | 0.0 | 0.0 | 0.00 | 0.47 | 0.00 | 86 | 1012.0 |
| 20260510150531 | 61 | 150 | 0.0 | 0.0 | 0.00 | 0.47 | 0.00 | 86 | 1012.1 |
| 20260510150030 | 61 | 151 | 0.0 | 0.0 | 0.00 | 0.47 | 0.00 | 87 | 1012.0 |
| 20260510145530 | 61 | 211 | 0.0 | 0.0 | 0.00 | 0.47 | 0.00 | 87 | 1012.0 |
| 20260510145029 | 60 | 149 | 0.0 | 0.0 | 0.00 | 0.47 | 0.00 | 88 | 1011.9 |
| 20260510144529 | 60 | 144 | 0.0 | 0.0 | 0.00 | 0.47 | 0.00 | 88 | 1011.9 |
| 20260510144025 | 60 | 264 | 0.0 | 0.0 | 0.00 | 0.47 | 0.00 | 89 | 1011.9 |
| 20260510143524 | 59 | 124 | 0.0 | 0.0 | 0.00 | 0.47 | 0.00 | 90 | 1011.9 |
| 20260510143031 | 59 | 174 | 0.0 | 0.0 | 0.00 | 0.47 | 0.00 | 91 | 1011.9 |
| 20260510142521 | 59 | 360 | 0.0 | 0.0 | 0.00 | 0.47 | 0.00 | 92 | 1011.8 |
| 20260510142020 | 58 | 360 | 0.0 | 0.0 | 0.00 | 0.47 | 0.00 | 92 | 1011.9 |
| 20260510141519 | 58 | 298 | 0.0 | 0.0 | 0.00 | 0.47 | 0.00 | 92 | 1011.9 |
| 20260510141018 | 57 | 247 | 0.0 | 0.0 | 0.00 | 0.47 | 0.00 | 93 | 1011.8 |
| 20260510140515 | 57 | 249 | 0.0 | 0.0 | 0.00 | 0.47 | 0.00 | 93 | 1011.8 |
| 20260510140015 | 57 | 276 | 0.0 | 0.0 | 0.00 | 0.47 | 0.00 | 94 | 1011.8 |
| 20260510135513 | 56 | 170 | 0.0 | 0.0 | 0.00 | 0.47 | 0.00 | 94 | 1011.7 |
| 20260510135012 | 56 | 160 | 0.0 | 0.0 | 0.00 | 0.47 | 0.00 | 94 | 1011.7 |
| 20260510134512 | 56 | 139 | 0.0 | 0.0 | 0.00 | 0.47 | 0.00 | 95 | 1011.7 |
| 20260510134012 | 56 | 222 | 0.0 | 0.0 | 0.00 | 0.47 | 0.00 | 95 | 1011.8 |
| 20260510133511 | 56 | 146 | 0.0 | 0.0 | 0.00 | 0.47 | 0.00 | 95 | 1011.9 |
| 20260510133025 | 56 | 140 | 0.0 | 0.0 | 0.00 | 0.47 | 0.00 | 96 | 1011.9 |
| 20260510132514 | 56 | 166 | 0.0 | 0.0 | 0.00 | 0.47 | 0.00 | 96 | 1011.9 |
| 20260510132010 | 56 | 131 | 0.0 | 0.0 | 0.00 | 0.47 | 0.00 | 96 | 1011.9 |
| 20260510131509 | 56 | 163 | 0.0 | 0.0 | 0.00 | 0.47 | 0.00 | 97 | 1011.7 |
| 20260510131009 | 55 | 164 | 0.0 | 0.9 | 0.00 | 0.47 | 0.00 | 97 | 1011.8 |
| 20260510130509 | 56 | 158 | 0.0 | 0.9 | 0.00 | 0.47 | 0.00 | 97 | 1011.9 |
| 20260510130008 | 56 | 168 | 0.0 | 0.0 | 0.00 | 0.47 | 0.00 | 98 | 1011.9 |
| 20260510125507 | 56 | 168 | 0.0 | 0.0 | 0.00 | 0.48 | 0.00 | 98 | 1011.9 |
| 20260510125006 | 55 | 169 | 0.0 | 0.0 | 0.00 | 0.48 | 0.00 | 98 | 1011.8 |
| 20260510124508 | 55 | 280 | 0.0 | 0.0 | 0.00 | 0.48 | 0.00 | 98 | 1011.8 |
| 20260510124007 | 55 | 184 | 0.0 | 0.0 | 0.00 | 0.48 | 0.00 | 98 | 1011.8 |
| 20260510123504 | 55 | 282 | 0.0 | 0.0 | 0.00 | 0.48 | 0.00 | 98 | 1011.7 |
| 20260510123003 | 54 | 281 | 0.0 | 0.0 | 0.00 | 0.48 | 0.00 | 98 | 1011.6 |
| 20260510122503 | 54 | 308 | 0.0 | 0.0 | 0.00 | 0.48 | 0.00 | 98 | 1011.5 |
| 20260510122000 | 54 | 264 | 0.0 | 0.0 | 0.00 | 0.48 | 0.00 | 98 | 1011.5 |
| 20260510121559 | 54 | 193 | 0.0 | 0.0 | 0.00 | 0.48 | 0.00 | 98 | 1011.5 |
| 20260510121058 | 53 | 193 | 0.0 | 0.0 | 0.00 | 0.48 | 0.00 | 98 | 1011.4 |
| 20260510120557 | 53 | 193 | 0.0 | 0.0 | 0.00 | 0.48 | 0.00 | 98 | 1011.5 |
| 20260510120057 | 53 | 191 | 0.0 | 0.0 | 0.00 | 0.48 | 0.00 | 99 | 1011.4 |
| 20260510115600 | 53 | 191 | 0.0 | 0.0 | 0.00 | 0.48 | 0.00 | 99 | 1011.4 |
| 20260510115055 | 53 | 191 | 0.0 | 0.0 | 0.00 | 0.48 | 0.00 | 98 | 1011.2 |
| 20260510114555 | 53 | 191 | 0.0 | 0.0 | 0.00 | 0.48 | 0.00 | 98 | 1011.2 |
| 20260510114054 | 53 | 191 | 0.0 | 0.0 | 0.00 | 0.48 | 0.00 | 98 | 1011.1 |
| 20260510113554 | 53 | 157 | 0.0 | 0.0 | 0.00 | 0.48 | 0.00 | 98 | 1011.1 |
| 20260510113054 | 53 | 160 | 0.0 | 0.0 | 0.00 | 0.48 | 0.00 | 98 | 1011.4 |
| 20260510112553 | 52 | 160 | 0.0 | 0.0 | 0.00 | 0.48 | 0.00 | 98 | 1011.2 |
| 20260510112052 | 52 | 205 | 0.0 | 0.0 | 0.00 | 0.48 | 0.00 | 98 | 1011.1 |
| 20260510111558 | 52 | 200 | 0.0 | 0.0 | 0.00 | 0.48 | 0.00 | 98 | 1011.1 |
| 20260510111052 | 52 | 211 | 0.0 | 0.0 | 0.00 | 0.48 | 0.00 | 99 | 1011.0 |
| 20260510110552 | 52 | 348 | 0.0 | 0.0 | 0.00 | 0.48 | 0.00 | 99 | 1010.9 |
| 20260510110052 | 52 | 349 | 0.0 | 0.0 | 0.00 | 0.48 | 0.00 | 99 | 1011.0 |
| 20260510105551 | 52 | 349 | 0.0 | 0.0 | 0.00 | 0.48 | 0.00 | 99 | 1010.9 |
| 20260510105051 | 52 | 349 | 0.0 | 0.0 | 0.00 | 0.48 | 0.00 | 98 | 1010.9 |
| 20260510104552 | 52 | 349 | 0.0 | 0.0 | 0.00 | 0.48 | 0.00 | 98 | 1010.9 |
| 20260510104053 | 52 | 280 | 0.0 | 0.0 | 0.00 | 0.48 | 0.00 | 98 | 1010.8 |
| 20260510103551 | 52 | 279 | 0.0 | 0.0 | 0.00 | 0.48 | 0.00 | 98 | 1010.6 |
| 20260510103050 | 52 | 198 | 0.0 | 0.0 | 0.00 | 0.48 | 0.00 | 98 | 1010.6 |
| 20260510102550 | 51 | 195 | 0.0 | 0.0 | 0.00 | 0.48 | 0.00 | 98 | 1010.4 |
| 20260510102052 | 51 | 179 | 0.0 | 0.0 | 0.00 | 0.48 | 0.00 | 98 | 1010.5 |
| 20260510101551 | 51 | 214 | 0.0 | 0.0 | 0.00 | 0.48 | 0.00 | 98 | 1010.5 |
| 20260510101049 | 51 | 215 | 0.0 | 0.0 | 0.00 | 0.48 | 0.00 | 98 | 1010.7 |
| 20260510100549 | 51 | 204 | 0.0 | 0.0 | 0.00 | 0.48 | 0.00 | 98 | 1010.7 |
| 20260510100049 | 51 | 204 | 0.0 | 0.0 | 0.00 | 0.48 | 0.00 | 98 | 1010.9 |
| 20260510095548 | 51 | 204 | 0.0 | 0.0 | 0.00 | 0.48 | 0.00 | 98 | 1010.9 |
| 20260510095046 | 51 | 205 | 0.0 | 0.0 | 0.00 | 0.48 | 0.00 | 98 | 1010.9 |
| 20260510094547 | 52 | 205 | 0.0 | 0.0 | 0.00 | 0.48 | 0.00 | 98 | 1010.9 |
| 20260510094046 | 52 | 230 | 0.0 | 0.0 | 0.00 | 0.48 | 0.00 | 98 | 1010.8 |
| 20260510093545 | 52 | 158 | 0.0 | 0.0 | 0.00 | 0.48 | 0.00 | 98 | 1010.8 |
| 20260510093045 | 52 | 158 | 0.0 | 0.0 | 0.00 | 0.48 | 0.00 | 98 | 1010.8 |
| 20260510092545 | 52 | 158 | 0.0 | 0.0 | 0.00 | 0.48 | 0.00 | 98 | 1010.8 |
| 20260510092043 | 52 | 200 | 0.0 | 0.0 | 0.00 | 0.48 | 0.00 | 98 | 1010.9 |
| 20260510091543 | 52 | 200 | 0.0 | 0.0 | 0.00 | 0.48 | 0.00 | 98 | 1010.6 |
| 20260510091044 | 52 | 200 | 0.0 | 0.0 | 0.00 | 0.48 | 0.00 | 98 | 1010.8 |
| 20260510090544 | 52 | 200 | 0.0 | 0.0 | 0.00 | 0.48 | 0.00 | 98 | 1011.0 |
| 20260510090043 | 52 | 200 | 0.0 | 0.0 | 0.00 | 0.48 | 0.00 | 98 | 1011.1 |
| 20260510085545 | 52 | 200 | 0.0 | 0.0 | 0.00 | 0.50 | 0.00 | 98 | 1011.1 |
| 20260510085041 | 52 | 200 | 0.0 | 0.0 | 0.00 | 0.50 | 0.00 | 98 | 1011.0 |
| 20260510084540 | 53 | 200 | 0.0 | 0.0 | 0.00 | 0.50 | 0.00 | 98 | 1010.8 |
| 20260510084040 | 53 | 200 | 0.0 | 0.0 | 0.00 | 0.50 | 0.00 | 98 | 1010.8 |
| 20260510083540 | 53 | 200 | 0.0 | 0.0 | 0.00 | 0.50 | 0.00 | 98 | 1010.8 |
| 20260510083040 | 52 | 200 | 0.0 | 0.0 | 0.00 | 0.50 | 0.00 | 98 | 1010.9 |
| 20260510082538 | 53 | 200 | 0.0 | 0.0 | 0.00 | 0.50 | 0.00 | 98 | 1010.8 |
| 20260510082038 | 53 | 200 | 0.0 | 0.0 | 0.00 | 0.50 | 0.00 | 98 | 1010.6 |
| 20260510081544 | 53 | 200 | 0.0 | 0.0 | 0.00 | 0.50 | 0.00 | 98 | 1010.7 |
| 20260510081038 | 53 | 200 | 0.0 | 0.0 | 0.00 | 0.50 | 0.00 | 98 | 1010.6 |
| 20260510080538 | 53 | 200 | 0.0 | 0.0 | 0.00 | 0.50 | 0.00 | 98 | 1010.7 |
| 20260510080036 | 53 | 198 | 0.0 | 0.0 | 0.00 | 0.50 | 0.00 | 98 | 1010.5 |
| 20260510075535 | 53 | 198 | 0.0 | 0.0 | 0.00 | 0.50 | 0.00 | 98 | 1010.4 |
| 20260510075037 | 53 | 198 | 0.0 | 0.0 | 0.00 | 0.50 | 0.00 | 98 | 1010.4 |
| 20260510074535 | 53 | 198 | 0.0 | 0.0 | 0.00 | 0.50 | 0.00 | 98 | 1010.4 |
| 20260510074035 | 53 | 198 | 0.0 | 0.0 | 0.00 | 0.50 | 0.00 | 98 | 1010.4 |
| 20260510073535 | 53 | 188 | 0.0 | 0.0 | 0.00 | 0.50 | 0.00 | 98 | 1010.5 |
| 20260510073049 | 53 | 189 | 0.0 | 0.0 | 0.00 | 0.50 | 0.00 | 98 | 1010.5 |
| 20260510072534 | 53 | 188 | 0.0 | 0.0 | 0.00 | 0.50 | 0.00 | 98 | 1010.4 |
| 20260510072035 | 53 | 224 | 0.0 | 0.0 | 0.00 | 0.50 | 0.00 | 98 | 1010.5 |
| 20260510071534 | 53 | 193 | 0.0 | 0.0 | 0.00 | 0.50 | 0.00 | 98 | 1010.5 |
| 20260510071033 | 53 | 155 | 0.0 | 0.0 | 0.00 | 0.50 | 0.00 | 98 | 1010.5 |
| 20260510070534 | 53 | 155 | 0.0 | 0.0 | 0.00 | 0.50 | 0.00 | 98 | 1010.4 |
| 20260510070034 | 53 | 159 | 0.0 | 0.0 | 0.00 | 0.50 | 0.00 | 98 | 1010.5 |
| 20260510065536 | 53 | 159 | 0.0 | 0.0 | 0.00 | 0.50 | 0.00 | 98 | 1010.4 |
| 20260510065035 | 53 | 159 | 0.0 | 0.0 | 0.00 | 0.50 | 0.00 | 98 | 1010.5 |
| 20260510064541 | 53 | 159 | 0.0 | 0.0 | 0.00 | 0.50 | 0.00 | 98 | 1010.5 |
| 20260510064031 | 53 | 159 | 0.0 | 0.0 | 0.00 | 0.50 | 0.00 | 98 | 1010.4 |
| 20260510063531 | 53 | 159 | 0.0 | 0.0 | 0.00 | 0.50 | 0.00 | 98 | 1010.3 |
| 20260510063038 | 53 | 160 | 0.0 | 0.0 | 0.00 | 0.50 | 0.00 | 98 | 1010.3 |
| 20260510062530 | 53 | 159 | 0.0 | 0.0 | 0.00 | 0.50 | 0.00 | 98 | 1010.0 |
| 20260510062030 | 53 | 159 | 0.0 | 0.0 | 0.00 | 0.50 | 0.00 | 98 | 1009.9 |
| 20260510061531 | 53 | 159 | 0.0 | 0.0 | 0.00 | 0.50 | 0.00 | 98 | 1009.9 |
| 20260510061030 | 53 | 159 | 0.0 | 0.0 | 0.00 | 0.50 | 0.00 | 98 | 1010.0 |
| 20260510060529 | 53 | 145 | 0.0 | 0.0 | 0.00 | 0.50 | 0.00 | 98 | 1010.0 |
| 20260510060029 | 53 | 147 | 0.0 | 0.0 | 0.00 | 0.50 | 0.00 | 98 | 1010.0 |
| 20260510055528 | 53 | 146 | 0.0 | 0.0 | 0.00 | 0.50 | 0.00 | 98 | 1010.1 |
| 20260510055030 | 53 | 142 | 0.0 | 0.0 | 0.00 | 0.50 | 0.00 | 98 | 1010.2 |
| 20260510054528 | 53 | 195 | 0.0 | 0.0 | 0.00 | 0.50 | 0.00 | 98 | 1010.3 |
| 20260510054030 | 53 | 210 | 0.0 | 0.0 | 0.00 | 0.50 | 0.00 | 98 | 1010.2 |
| 20260510053527 | 53 | 204 | 0.0 | 0.0 | 0.00 | 0.50 | 0.00 | 98 | 1010.3 |
| 20260510053027 | 53 | 208 | 0.0 | 0.0 | 0.00 | 0.50 | 0.00 | 98 | 1010.3 |
| 20260510052530 | 53 | 208 | 0.0 | 0.0 | 0.00 | 0.50 | 0.00 | 98 | 1010.3 |
| 20260510052027 | 53 | 208 | 0.0 | 0.0 | 0.00 | 0.50 | 0.00 | 98 | 1010.2 |
| 20260510051530 | 53 | 208 | 0.0 | 0.0 | 0.00 | 0.50 | 0.00 | 98 | 1010.2 |
| 20260510051027 | 53 | 208 | 0.0 | 0.0 | 0.00 | 0.50 | 0.00 | 98 | 1010.1 |
| 20260510050530 | 53 | 208 | 0.0 | 0.0 | 0.00 | 0.50 | 0.00 | 98 | 1010.2 |
| 20260510050026 | 53 | 208 | 0.0 | 0.0 | 0.00 | 0.50 | 0.00 | 98 | 1010.4 |
| 20260510045526 | 53 | 168 | 0.0 | 0.0 | 0.00 | 0.50 | 0.00 | 98 | 1010.4 |
| 20260510045028 | 53 | 167 | 0.0 | 0.0 | 0.00 | 0.50 | 0.00 | 98 | 1010.4 |
| 20260510044526 | 53 | 167 | 0.0 | 0.0 | 0.00 | 0.50 | 0.00 | 98 | 1010.3 |
| 20260510044025 | 53 | 167 | 0.0 | 0.0 | 0.00 | 0.50 | 0.00 | 98 | 1010.4 |
| 20260510043524 | 53 | 167 | 0.0 | 0.0 | 0.00 | 0.50 | 0.00 | 98 | 1010.3 |
| 20260510043024 | 53 | 167 | 0.0 | 0.0 | 0.00 | 0.50 | 0.00 | 98 | 1010.3 |
| 20260510042522 | 53 | 167 | 0.0 | 0.0 | 0.00 | 0.50 | 0.00 | 98 | 1010.2 |
| 20260510042022 | 53 | 167 | 0.0 | 0.0 | 0.00 | 0.50 | 0.00 | 98 | 1010.2 |
| 20260510041522 | 53 | 167 | 0.0 | 0.0 | 0.00 | 0.50 | 0.00 | 98 | 1010.1 |
| 20260510041023 | 53 | 167 | 0.0 | 0.0 | 0.00 | 0.50 | 0.00 | 98 | 1010.1 |
| 20260510040522 | 53 | 167 | 0.0 | 0.0 | 0.00 | 0.50 | 0.00 | 98 | 1010.1 |
| 20260510040027 | 53 | 167 | 0.0 | 0.0 | 0.00 | 0.50 | 0.00 | 98 | 1010.1 |
| 20260510035520 | 53 | 138 | 0.0 | 0.0 | 0.00 | 0.50 | 0.50 | 98 | 1010.1 |
| 20260510035019 | 53 | 138 | 0.0 | 0.0 | 0.00 | 0.50 | 0.50 | 98 | 1010.2 |
| 20260510034526 | 53 | 139 | 0.0 | 0.0 | 0.00 | 0.50 | 0.50 | 98 | 1010.2 |
| 20260510034020 | 53 | 139 | 0.0 | 0.0 | 0.00 | 0.50 | 0.50 | 98 | 1010.2 |
| 20260510033518 | 53 | 140 | 0.0 | 0.0 | 0.00 | 0.50 | 0.50 | 98 | 1010.2 |
| 20260510033018 | 53 | 139 | 0.0 | 0.0 | 0.00 | 0.50 | 0.50 | 98 | 1010.2 |
| 20260510032520 | 53 | 134 | 0.0 | 0.0 | 0.00 | 0.50 | 0.50 | 98 | 1010.2 |
| 20260510032018 | 53 | 158 | 0.0 | 0.0 | 0.00 | 0.50 | 0.50 | 98 | 1010.2 |
| 20260510031520 | 53 | 158 | 0.0 | 0.0 | 0.00 | 0.50 | 0.50 | 98 | 1010.1 |
| 20260510031019 | 53 | 158 | 0.0 | 0.0 | 0.00 | 0.50 | 0.50 | 98 | 1010.2 |
| 20260510030518 | 53 | 153 | 0.0 | 0.0 | 0.00 | 0.50 | 0.50 | 98 | 1010.2 |
| 20260510030018 | 53 | 152 | 0.0 | 0.0 | 0.00 | 0.50 | 0.50 | 98 | 1010.1 |
| 20260510025517 | 53 | 184 | 0.0 | 0.0 | 0.00 | 0.50 | 0.50 | 98 | 1010.0 |
| 20260510025018 | 53 | 183 | 0.0 | 0.0 | 0.00 | 0.50 | 0.50 | 98 | 1010.0 |
| 20260510024518 | 53 | 183 | 0.0 | 0.0 | 0.00 | 0.50 | 0.50 | 98 | 1010.0 |
| 20260510024017 | 53 | 183 | 0.0 | 0.0 | 0.00 | 0.50 | 0.50 | 98 | 1009.9 |
| 20260510023518 | 53 | 182 | 0.0 | 0.0 | 0.00 | 0.50 | 0.50 | 98 | 1010.1 |
| 20260510023017 | 53 | 183 | 0.0 | 0.0 | 0.00 | 0.50 | 0.50 | 98 | 1010.1 |
| 20260510022517 | 53 | 183 | 0.0 | 0.0 | 0.00 | 0.50 | 0.50 | 98 | 1010.2 |
| 20260510022017 | 53 | 183 | 0.0 | 0.0 | 0.00 | 0.50 | 0.50 | 98 | 1010.1 |
| 20260510021530 | 53 | 183 | 0.0 | 0.0 | 0.00 | 0.50 | 0.50 | 98 | 1010.1 |
| 20260510021019 | 53 | 183 | 0.0 | 0.0 | 0.00 | 0.50 | 0.50 | 98 | 1010.2 |
| 20260510020516 | 53 | 182 | 0.0 | 0.0 | 0.00 | 0.50 | 0.50 | 97 | 1010.2 |
| 20260510020016 | 53 | 183 | 0.0 | 0.0 | 0.00 | 0.50 | 0.50 | 97 | 1010.2 |
| 20260510015516 | 53 | 183 | 0.0 | 0.0 | 0.00 | 0.50 | 0.50 | 97 | 1010.2 |
| 20260510015019 | 53 | 183 | 0.0 | 0.0 | 0.00 | 0.50 | 0.50 | 97 | 1010.1 |
| 20260510014514 | 53 | 184 | 0.0 | 0.0 | 0.00 | 0.50 | 0.50 | 97 | 1010.2 |
| 20260510014014 | 53 | 184 | 0.0 | 0.0 | 0.00 | 0.50 | 0.50 | 97 | 1010.2 |
| 20260510013515 | 53 | 184 | 0.0 | 0.0 | 0.00 | 0.50 | 0.50 | 97 | 1010.1 |
| 20260510013014 | 53 | 184 | 0.0 | 0.0 | 0.00 | 0.50 | 0.50 | 97 | 1010.1 |
| 20260510012514 | 53 | 184 | 0.0 | 0.0 | 0.00 | 0.50 | 0.50 | 97 | 1010.1 |
| 20260510012014 | 53 | 184 | 0.0 | 0.0 | 0.00 | 0.50 | 0.50 | 97 | 1010.0 |
| 20260510011514 | 53 | 184 | 0.0 | 0.0 | 0.00 | 0.50 | 0.50 | 97 | 1009.9 |
| 20260510011013 | 53 | 184 | 0.0 | 0.0 | 0.00 | 0.50 | 0.50 | 97 | 1009.9 |
| 20260510010513 | 53 | 184 | 0.0 | 0.0 | 0.00 | 0.50 | 0.50 | 97 | 1009.9 |
| 20260510010013 | 53 | 184 | 0.0 | 0.0 | 0.00 | 0.50 | 0.50 | 97 | 1010.0 |
| 20260510005513 | 54 | 184 | 0.0 | 0.0 | 0.00 | 0.50 | 0.50 | 97 | 1009.9 |
| 20260510005013 | 54 | 184 | 0.0 | 0.0 | 0.00 | 0.50 | 0.50 | 97 | 1009.8 |
| 20260510004511 | 54 | 209 | 0.0 | 0.0 | 0.00 | 0.50 | 0.50 | 97 | 1009.7 |
| 20260510004014 | 54 | 183 | 0.0 | 0.0 | 0.01 | 0.50 | 0.50 | 97 | 1009.7 |
| 20260510003512 | 54 | 145 | 0.0 | 0.0 | 0.01 | 0.50 | 0.50 | 97 | 1009.6 |
| 20260510003012 | 54 | 188 | 0.0 | 0.0 | 0.01 | 0.50 | 0.50 | 97 | 1009.6 |
| 20260510002511 | 54 | 188 | 0.0 | 0.0 | 0.01 | 0.50 | 0.50 | 97 | 1009.5 |
| 20260510002011 | 54 | 187 | 0.0 | 0.0 | 0.02 | 0.50 | 0.50 | 97 | 1009.3 |
| 20260510001511 | 54 | 188 | 0.0 | 0.0 | 0.03 | 0.50 | 0.50 | 97 | 1009.5 |
| 20260510001013 | 54 | 188 | 0.0 | 0.0 | 0.03 | 0.50 | 0.50 | 97 | 1009.5 |
| 20260510000511 | 54 | 187 | 0.0 | 0.0 | 0.04 | 0.50 | 0.50 | 97 | 1009.3 |
| 20260510000016 | 54 | 187 | 0.0 | 0.0 | 0.04 | 0.50 | 0.50 | 97 | 1009.4 |
| 20260509235510 | 54 | 188 | 0.0 | 0.0 | 0.05 | 0.50 | 0.50 | 97 | 1009.5 |
| 20260509235011 | 54 | 187 | 0.0 | 0.0 | 0.05 | 0.50 | 0.50 | 97 | 1009.2 |
| 20260509234510 | 54 | 158 | 0.0 | 0.0 | 0.06 | 0.50 | 0.50 | 97 | 1009.2 |
| 20260509234008 | 54 | 158 | 0.0 | 0.0 | 0.06 | 0.49 | 0.49 | 97 | 1009.4 |
| 20260509233509 | 54 | 152 | 0.0 | 0.0 | 0.07 | 0.49 | 0.49 | 97 | 1009.5 |
| 20260509233008 | 54 | 205 | 0.0 | 0.0 | 0.08 | 0.49 | 0.49 | 97 | 1009.6 |
| 20260509232507 | 54 | 138 | 0.0 | 0.0 | 0.09 | 0.49 | 0.49 | 97 | 1009.6 |
| 20260509232007 | 54 | 186 | 0.0 | 0.0 | 0.09 | 0.48 | 0.48 | 97 | 1009.8 |
| 20260509231506 | 54 | 186 | 0.0 | 0.0 | 0.08 | 0.47 | 0.47 | 97 | 1010.0 |
| 20260509231007 | 53 | 196 | 0.0 | 0.0 | 0.09 | 0.47 | 0.47 | 97 | 1010.0 |
| 20260509230506 | 53 | 204 | 0.0 | 0.0 | 0.08 | 0.46 | 0.46 | 97 | 1010.1 |
| 20260509230006 | 53 | 149 | 0.0 | 0.0 | 0.09 | 0.46 | 0.46 | 97 | 1010.0 |
| 20260509225508 | 53 | 165 | 0.0 | 0.0 | 0.09 | 0.45 | 0.45 | 97 | 1010.1 |
| 20260509225005 | 53 | 174 | 0.0 | 0.0 | 0.09 | 0.44 | 0.44 | 97 | 1010.1 |
| 20260509224505 | 53 | 129 | 0.0 | 0.0 | 0.10 | 0.44 | 0.44 | 97 | 1010.2 |
| 20260509224004 | 53 | 121 | 0.0 | 0.0 | 0.09 | 0.43 | 0.43 | 96 | 1010.3 |